sat.trackr.live / text

‹ back to catalog

BEESAT-1

NORAD 35933 · 2009-051C

PAYLOAD ACTIVE UNKNOWN

§ Identity

Operator
Country
GER
Launch date
2009-09-23
Launch site
SRILR
Launch vehicle
Mass (kg)
RCS (m²)
0.03

Purposes: comms, tech_demo

External: N2YO · Heavens-Above · Gunter

§ Orbital elements

Epoch: 2026-05-25T04:15:41.639328Z

Period
98.52 min
Inclination
98.3981°
Eccentricity
0.0004240
Mean motion
14.61676163 rev/d
Perigee alt
684.8 km
Apogee alt
690.8 km
Semi-major
7,065.9 km
B*
1.5561e-4
RAAN
52.3476°
Arg perigee
310.2632°
Mean anomaly
49.8197°
Rev number
88,582

§ Raw data

BEESAT-11 35933U 09051C   26145.17756527  .00000725  00000+0  15561-3 0  99902 35933  98.3981  52.3476 0004240 310.2632  49.8197 14.61676163885827

JSON: /api/v1/satellites/35933 · /tle

For live sub-satellite position, see the globe view (requires WebGL).

§ Visibility from observer

Set your observer location to see the next 7 days of passes ≥ 10°. The values pass through the URL so the page stays shareable.

No JS? Fill the form by hand. The geolocation button needs JavaScript.

§ Radio — SatNOGS DB

ModeDescriptionDownlinkUplink
GMSK Digipeater (Mobitex, idle mode: 10 sec interval) 435.950 MHz 435.950 MHz
GMSK TLM Mobitex GMSK 435.950 MHz
FM CW Beacon (F2A) (inactive) 435.950 MHz

3 transmitters · refreshed weekly from db.satnogs.org